Wind_Speed
26 24 24 26 26 26 27 22 24 25 26 27 25 23 21 18 16 14 15 15 15 13 11 9 7 5 3 3 4 7 9 9 7 5 1 3 3 5 6 7 9 12 12
28 25 27 25 28 30 31 27 25 28 27 26 24 24 21 20 16 14 16 17 16 14 12 9 7 6 4 5 5 5 8 9 7 7 8 4 5 7 7 9 11 11 10
31 28 26 28 29 32 35 34 29 27 27 26 25 25 24 23 21 20 19 19 18 16 13 10 8 6 6 7 7 6 8 9 10 7 7 5 5 7 7 7 8 8 9
29 30 28 28 30 31 32 34 31 27 26 26 25 26 27 28 24 20 18 20 19 16 14 12 9 8 7 7 8 9 10 11 12 12 8 7 8 6 5 5 6 7 7
30 30 29 24 24 28 30 36 34 29 26 28 27 25 27 24 20 19 19 21 20 18 16 14 11 10 9 9 9 9 11 12 13 13 10 7 5 6 6 5 4 6 7
33 33 29 24 24 25 28 34 36 32 28 28 28 29 28 26 24 23 23 21 20 20 19 16 14 12 11 10 11 9 11 13 14 14 10 7 5 5 4 4 4 4 5
31 31 33 30 27 28 28 33 37 37 32 29 30 31 29 28 26 25 25 22 20 21 20 17 15 13 12 12 10 10 11 13 14 14 11 8 6 5 5 4 3 3 4
30 30 33 34 32 29 28 29 35 39 37 33 33 30 31 30 28 26 25 21 18 18 17 17 17 15 14 12 12 10 12 12 14 14 12 9 7 7 8 6 6 6 5
28 27 30 34 33 32 30 29 29 36 39 36 36 32 32 33 31 28 26 22 19 18 16 17 17 17 15 14 14 12 13 13 13 13 12 9 8 7 8 8 8 8 7
24 27 27 30 33 32 30 27 28 30 34 39 39 33 32 33 32 30 28 25 22 20 18 18 17 20 18 17 16 14 14 13 12 12 11 10 8 7 8 9 9 10 11
21 23 27 29 32 31 31 30 31 32 34 37 39 37 32 34 35 33 30 28 23 22 22 21 18 21 20 19 18 14 14 13 11 11 10 9 8 8 8 8 9 10 9
22 23 23 24 27 31 32 32 33 35 35 34 37 39 35 33 36 36 35 31 27 24 24 26 25 23 21 23 20 16 15 13 11 11 10 8 7 7 6 8 7 7 9
20 22 21 22 24 27 28 29 31 33 36 35 34 35 37 34 35 37 37 32 29 28 29 30 30 27 25 25 22 18 14 14 11 10 10 8 6 6 7 7 8 9 11
15 24 24 25 24 24 25 26 28 30 33 35 35 34 36 36 34 35 36 34 32 30 31 33 32 31 29 27 24 20 15 14 10 10 10 8 6 7 7 8 9 11 12
9 19 28 29 28 28 29 28 28 30 28 31 33 32 35 36 33 33 34 33 33 33 32 35 34 35 32 30 25 20 16 15 10 11 10 8 8 7 7 8 10 12 14
5 12 23 29 30 31 29 26 28 27 26 26 29 31 33 36 32 31 33 34 33 34 33 35 35 36 35 34 28 22 16 15 11 12 11 9 8 8 8 9 11 13 17
10 11 11 16 24 28 26 26 26 23 22 23 24 28 30 33 34 32 32 35 34 34 33 35 36 37 36 32 30 19 17 14 13 13 11 10 9 9 10 12 13 15 18
12 14 13 15 18 21 24 26 24 20 19 21 23 25 26 30 32 31 32 34 35 34 33 34 36 37 36 34 24 21 17 15 14 13 11 11 11 11 11 13 15 17 17
13 14 15 17 18 18 19 21 19 16 17 18 21 22 24 26 29 31 32 34 35 34 33 34 36 36 35 31 26 20 17 16 15 14 13 12 12 12 12 14 16 16 14
14 14 12 11 11 9 10 13 14 10 10 12 15 19 22 24 27 29 31 32 34 34 33 35 35 36 32 28 23 19 18 17 16 15 14 13 12 12 13 14 14 13 11
14 15 14 12 9 6 4 6 8 5 6 9 13 17 19 23 25 29 31 31 34 35 36 36 36 34 30 26 23 21 19 17 17 16 14 13 12 11 12 13 12 10 9
15 14 14 15 11 7 2 2 2 5 8 11 13 15 18 20 26 27 30 32 34 35 37 38 35 31 27 26 24 22 19 17 16 15 14 12 10 11 12 11 9 8 6
15 14 11 9 8 5 3 3 4 5 8 11 14 15 19 20 22 26 29 33 35 37 38 38 35 30 29 29 26 23 20 18 16 14 13 10 9 11 11 8 8 7 7
11 12 11 11 8 8 9 11 11 11 12 13 12 14 16 18 20 24 27 32 36 38 38 37 35 32 32 33 30 26 23 20 18 16 13 10 10 11 10 9 8 8 8
12 13 13 12 9 8 9 12 15 17 17 16 15 15 18 19 19 23 25 28 32 35 35 35 34 32 36 36 31 26 22 21 19 17 14 12 12 12 11 10 9 9 9
13 15 15 14 13 13 13 14 14 17 21 23 22 21 19 20 22 25 28 27 28 29 30 33 31 28 31 28 26 23 21 21 21 19 16 13 13 12 12 11 11 10 8
Wind_Direction
216 220 219 223 223 223 213 209 201 197 196 195 196 198 202 202 210 212 220 220 219 222 237 244 259 284 309 302 319 342 350 359 356 338 135 178 223 261 287 312 322 330 340
216 220 221 220 226 227 220 213 209 207 207 209 210 207 203 207 215 219 221 221 224 226 233 239 256 277 291 297 312 330 343 349 341 304 272 243 261 263 278 297 315 334 349
221 221 225 227 231 227 223 218 214 211 212 211 211 205 205 207 211 214 224 221 225 228 231 239 247 252 272 292 303 308 330 341 338 326 278 258 242 239 263 297 325 340 344
229 229 230 239 229 228 224 220 219 217 217 214 213 213 210 210 216 220 221 221 224 226 232 240 247 251 266 282 297 305 324 335 338 335 317 285 269 239 234 274 315 334 338
236 230 241 240 237 228 224 219 220 219 221 220 220 222 222 225 224 219 220 222 225 229 234 241 249 258 272 282 292 303 321 333 338 338 328 308 289 273 260 245 269 305 327
238 237 248 247 237 232 226 221 221 221 223 221 223 227 229 226 217 218 220 222 225 230 233 237 242 253 268 282 292 298 318 332 338 338 332 320 308 294 281 269 275 276 301
240 239 241 244 239 229 224 221 222 224 225 225 228 228 231 229 225 224 221 221 224 229 233 239 244 251 261 267 280 292 313 328 337 338 334 328 329 321 321 330 323 308 276
238 241 244 245 247 236 227 224 224 225 226 228 230 229 234 229 228 230 226 229 236 238 241 243 244 248 255 266 276 287 305 319 332 334 333 332 331 328 325 331 332 325 313
234 241 245 245 247 244 238 232 230 229 228 231 231 229 235 229 229 229 230 233 238 239 242 244 251 253 260 268 268 282 297 309 323 330 327 324 323 321 322 325 324 326 325
230 238 243 247 249 251 247 238 237 239 236 232 233 231 240 233 233 231 230 230 234 240 240 241 242 251 253 257 264 278 287 300 317 324 321 318 318 320 319 319 316 316 314
232 238 245 251 255 257 255 249 240 238 238 236 232 233 241 235 235 232 231 230 233 242 246 241 247 255 254 254 256 266 281 293 309 317 314 313 312 314 314 314 313 315 315
247 241 246 251 256 261 261 255 246 238 241 243 236 234 237 239 235 234 232 232 230 228 241 245 248 249 253 254 254 260 279 282 299 310 306 303 300 303 310 316 321 317 321
252 247 241 243 250 256 260 259 252 245 243 245 240 234 234 239 237 234 232 232 234 233 239 242 244 246 250 247 248 254 270 285 284 305 302 297 290 293 309 313 311 321 329
253 238 238 238 245 253 258 259 259 254 248 247 244 241 237 239 240 236 233 231 234 233 241 243 246 245 247 245 243 248 261 270 271 294 291 285 283 294 302 302 305 317 322
264 242 242 241 246 254 260 262 260 261 255 248 246 245 240 239 240 236 234 233 234 235 241 240 241 241 241 241 241 247 260 261 262 280 276 272 277 285 289 291 302 309 317
321 265 251 251 250 254 259 264 263 262 262 254 251 247 242 239 239 237 234 235 232 234 238 236 237 238 238 237 238 242 258 249 262 271 266 266 275 284 284 290 296 307 318
335 322 296 270 258 259 262 263 266 265 266 261 255 250 244 239 240 239 235 233 232 235 241 236 235 235 238 238 239 245 248 243 259 264 261 264 271 278 285 290 300 309 314
340 334 314 297 282 268 260 255 261 262 265 262 258 255 249 242 240 237 235 232 233 239 243 237 234 232 230 237 241 252 243 243 255 258 257 261 269 277 282 289 298 306 310
346 338 320 308 297 280 262 248 249 254 261 261 261 259 252 244 238 235 234 232 235 238 238 237 232 228 230 233 241 244 240 245 250 248 250 257 264 270 275 285 294 303 311
7 357 347 336 323 305 262 235 230 242 257 266 265 262 259 251 244 239 233 234 235 237 237 231 228 228 227 235 239 234 238 241 243 241 242 246 255 263 275 284 292 303 307
29 24 17 32 47 77 136 216 222 233 264 270 269 259 257 251 242 236 233 234 233 232 230 226 223 222 226 231 235 232 235 239 238 237 238 243 248 261 271 280 292 301 306
34 40 43 45 56 78 69 5 274 281 278 278 274 268 255 246 240 236 235 233 232 230 225 220 218 220 226 227 226 228 232 231 233 233 235 233 243 258 266 277 282 296 301
34 32 33 44 58 64 47 321 324 315 304 284 277 267 253 244 239 240 234 232 231 227 222 219 218 221 224 223 222 225 225 224 220 224 220 230 252 264 269 259 270 279 288
13 15 12 18 10 340 325 314 306 292 291 294 294 275 258 253 248 240 238 235 230 226 222 220 220 224 224 222 221 220 218 214 214 213 219 239 260 266 251 248 262 272 275
334 334 334 332 325 311 307 298 290 289 282 281 284 278 267 254 250 248 246 242 242 238 235 231 234 239 229 229 227 227 225 221 220 220 225 242 259 248 239 246 252 255 268
309 313 317 313 306 295 294 293 286 276 276 272 271 273 267 260 254 245 243 240 239 239 238 240 248 252 242 237 232 226 219 217 220 224 233 247 256 241 239 242 243 248 258
Height
1528 1534 1539 1543 1547 1550 1553 1558 1560 1564 1567 1569 1573 1576 1580 1585 1588 1589 1591 1594 1595 1598 1600 1602 1604 1604 1604 1605 1604 1603 1601 1600 1599 1598 1596 1595 1594 1593 1592 1591 1589 1587 1585
1526 1530 1535 1539 1542 1545 1550 1554 1557 1560 1563 1567 1570 1574 1578 1583 1586 1588 1589 1592 1595 1597 1598 1600 1602 1603 1603 1604 1604 1603 1601 1600 1599 1598 1596 1595 1594 1592 1591 1590 1588 1586 1585
1522 1527 1530 1533 1537 1538 1543 1547 1551 1556 1560 1564 1568 1572 1576 1580 1582 1584 1587 1590 1592 1595 1598 1599 1601 1602 1602 1602 1602 1602 1601 1600 1598 1596 1596 1593 1591 1591 1590 1589 1588 1586 1584
1519 1523 1525 1528 1530 1535 1541 1547 1550 1554 1557 1561 1565 1568 1570 1573 1577 1581 1585 1588 1590 1593 1596 1598 1599 1600 1601 1602 1601 1601 1599 1598 1596 1594 1592 1591 1589 1589 1589 1588 1586 1585 1584
1514 1518 1520 1523 1528 1532 1536 1542 1547 1551 1555 1559 1562 1565 1568 1572 1576 1580 1583 1585 1588 1591 1593 1596 1598 1599 1599 1600 1600 1599 1598 1596 1594 1592 1590 1589 1587 1587 1587 1586 1586 1584 1583
1509 1514 1516 1520 1524 1528 1533 1538 1543 1547 1550 1554 1557 1560 1564 1568 1572 1575 1579 1582 1585 1588 1590 1593 1595 1597 1598 1598 1599 1598 1596 1594 1592 1590 1588 1587 1586 1585 1585 1584 1584 1583 1582
1503 1508 1511 1513 1517 1522 1527 1533 1538 1542 1546 1549 1551 1554 1559 1565 1568 1571 1574 1578 1581 1584 1587 1589 1591 1593 1595 1596 1596 1596 1594 1593 1590 1588 1586 1585 1584 1583 1582 1582 1581 1582 1581
1498 1502 1505 1509 1511 1516 1522 1527 1531 1536 1540 1544 1546 1552 1557 1561 1565 1568 1571 1575 1578 1582 1584 1586 1588 1590 1591 1593 1593 1593 1592 1590 1589 1587 1585 1584 1582 1581 1580 1580 1579 1579 1578
1495 1498 1501 1503 1506 1509 1515 1521 1525 1530 1535 1539 1542 1547 1551 1556 1560 1565 1570 1573 1575 1578 1581 1583 1586 1588 1589 1590 1590 1590 1589 1588 1587 1585 1584 1582 1581 1580 1579 1578 1577 1577 1575
1493 1496 1497 1499 1502 1505 1510 1516 1520 1524 1528 1532 1537 1542 1546 1551 1555 1560 1564 1568 1572 1574 1576 1579 1581 1583 1585 1586 1587 1587 1586 1585 1584 1583 1581 1580 1579 1578 1577 1576 1575 1574 1573
1491 1493 1495 1497 1500 1502 1504 1509 1513 1517 1520 1525 1530 1535 1539 1545 1550 1554 1559 1563 1568 1571 1573 1576 1578 1581 1582 1583 1583 1583 1583 1582 1580 1580 1579 1577 1577 1576 1575 1574 1573 1573 1571
1488 1490 1493 1495 1497 1499 1500 1503 1507 1510 1513 1518 1523 1528 1534 1537 1542 1547 1553 1558 1563 1564 1569 1572 1574 1576 1578 1579 1578 1579 1580 1580 1578 1577 1576 1575 1575 1574 1573 1572 1572 1571 1569
1486 1488 1490 1491 1493 1494 1496 1497 1500 1503 1507 1511 1515 1521 1525 1530 1534 1540 1546 1553 1557 1560 1562 1565 1568 1570 1572 1573 1574 1575 1576 1575 1575 1574 1573 1573 1572 1571 1571 1570 1569 1568 1566
1482 1484 1486 1487 1489 1490 1491 1493 1494 1498 1502 1505 1509 1513 1519 1524 1528 1533 1539 1545 1550 1554 1557 1560 1562 1565 1566 1568 1569 1570 1571 1572 1572 1570 1570 1570 1569 1569 1568 1568 1567 1566 1564
1479 1480 1482 1483 1485 1486 1487 1490 1492 1493 1497 1500 1503 1506 1511 1517 1521 1526 1531 1538 1542 1545 1550 1553 1556 1559 1560 1562 1563 1565 1566 1568 1567 1567 1567 1567 1566 1566 1565 1565 1565 1563 1561
1478 1477 1477 1479 1481 1482 1483 1485 1487 1489 1492 1495 1499 1502 1507 1511 1516 1520 1525 1530 1534 1538 1542 1545 1548 1551 1554 1555 1558 1560 1561 1562 1562 1562 1563 1563 1563 1563 1562 1562 1561 1560 1557
1474 1475 1474 1474 1475 1476 1479 1481 1482 1486 1488 1490 1493 1496 1501 1506 1510 1514 1519 1522 1527 1531 1535 1538 1541 1544 1547 1549 1551 1554 1556 1557 1557 1558 1558 1559 1559 1559 1559 1558 1557 1556 1553
1471 1470 1469 1469 1469 1470 1472 1475 1478 1480 1483 1485 1489 1492 1495 1500 1504 1508 1512 1517 1520 1524 1527 1531 1535 1537 1540 1544 1547 1549 1550 1552 1552 1553 1554 1554 1555 1555 1555 1554 1553 1552 1550
1469 1468 1465 1464 1464 1463 1464 1468 1472 1476 1479 1481 1484 1486 1490 1493 1498 1501 1505 1510 1514 1517 1520 1524 1528 1531 1535 1538 1541 1543 1545 1547 1548 1548 1549 1550 1551 1551 1551 1551 1550 1548 1546
1469 1466 1464 1461 1459 1459 1461 1465 1469 1472 1475 1477 1479 1482 1485 1488 1492 1496 1500 1504 1508 1512 1515 1518 1522 1525 1529 1533 1536 1537 1540 1542 1544 1545 1545 1546 1547 1547 1547 1547 1546 1544 1543
1469 1467 1464 1462 1460 1460 1463 1467 1470 1472 1474 1476 1477 1479 1481 1485 1488 1492 1495 1498 1502 1505 1509 1513 1516 1519 1524 1527 1530 1533 1535 1537 1538 1539 1540 1541 1542 1542 1543 1542 1542 1541 1540
1468 1468 1467 1466 1465 1466 1468 1470 1472 1474 1474 1476 1476 1477 1478 1480 1483 1485 1490 1493 1495 1499 1503 1506 1510 1514 1518 1522 1525 1528 1530 1532 1534 1535 1536 1537 1538 1538 1538 1537 1537 1537 1537
1473 1471 1470 1469 1469 1469 1470 1471 1473 1473 1474 1473 1474 1474 1475 1475 1476 1481 1483 1486 1491 1492 1496 1501 1504 1508 1512 1515 1520 1523 1525 1527 1529 1531 1532 1533 1533 1533 1533 1533 1533 1534 1534
1471 1471 1471 1470 1470 1470 1470 1471 1471 1471 1471 1471 1471 1471 1471 1473 1474 1476 1479 1481 1483 1486 1489 1494 1498 1502 1505 1509 1512 1516 1519 1522 1524 1526 1528 1529 1529 1529 1529 1529 1530 1530 1530
1469 1469 1469 1469 1469 1468 1468 1467 1467 1467 1468 1468 1467 1467 1468 1468 1469 1472 1473 1475 1478 1481 1484 1487 1491 1494 1496 1499 1504 1508 1512 1516 1519 1521 1523 1524 1525 1525 1525 1526 1526 1526 1526
1466 1466 1465 1465 1464 1463 1463 1463 1462 1462 1462 1462 1463 1463 1462 1463 1464 1466 1468 1470 1472 1475 1479 1482 1487 1490 1492 1497 1501 1503 1507 1511 1514 1516 1518 1520 1520 1520 1521 1522 1522 1523 1523